Regional Weather Roundup
Issued by NWS

Home | Current Version | Previous Version | Text Only | Print | Product List | Glossary Off
Versions: 1 2 3 4 5 6 7 8 9 10 11 12 13 14 15 16 17 18 19 20 21 22 23 24 25 26 27 28 29 30 31 32 33 34 35 36 37 38 39 40 41 42 43 44 45 46 47 48 49 50

000
ASUS43 KFSD 221510
RWRSD

WEATHER ROUNDUP FOR SOUTH DAKOTA
NATIONAL WEATHER SERVICE SIOUX FALLS SD
1000 AM CDT FRI JUL 22 2016

NOTE: "FAIR" INDICATES FEW OR NO CLOUDS BELOW 12,000 FEET WITH NO
SIGNIFICANT WEATHER AND/OR OBSTRUCTIONS TO VISIBILITY.


SDZ001>005-009-010-012>017-221600-
NORTHWEST AND NORTH CENTRAL SOUTH DAKOTA

CITY           SKY/WX    TMP DP  RH WIND       PRES   REMARKS
BUFFALO          N/A     73  67  81 NE18      29.99F
FAITH            N/A     84  71  65 E5        30.02S
MOBRIDGE       CLOUDY    81  75  82 SE9       29.99S
$$

SDZ012>016-024>037-041>051-057-063-072>074-221600-
SOUTHWEST AND SOUTH CENTRAL SOUTH DAKOTA

CITY           SKY/WX    TMP DP  RH WIND       PRES   REMARKS
RAPID CTY ARPT SUNNY     84  65  52 SE10      30.05S
PIERRE         CLOUDY    80  77  90 SE6       29.99S
CUSTER         SUNNY     83  46  27 VRB6      30.25S
ELLSWORTH AFB  SUNNY     88  58  36 SE10      30.04S
PHILIP         SUNNY     87  72  60 VRB3      30.01S
PINE RIDGE     CLOUDY    82  71  69 CALM      30.08F
WINNER         CLOUDY    79  77  94 E7        30.02S
$$

SDZ004>011-016>023-039-040-221600-
NORTHEAST SOUTH DAKOTA

CITY           SKY/WX    TMP DP  RH WIND       PRES   REMARKS
ABERDEEN       MOSUNNY   82  73  74 NE5       30.01S
WATERTOWN      SUNNY     84  71  65 SE8       30.03F
SISSETON         N/A     79  75  87 CALM      30.02S
$$

SDZ017-020-022-023-036>040-048>070-221600-
SOUTHEAST SOUTH DAKOTA

CITY           SKY/WX    TMP DP  RH WIND       PRES   REMARKS
SIOUX FALLS    PTSUNNY   87  79  76 NE10      29.99R HX 101
HURON          SUNNY     86  76  71 E8        29.99S HX  96
CHAMBERLAIN    CLOUDY    83  80  89 NE7       30.00S HX  95
MITCHELL       CLOUDY    85  78  80 NE7       29.98S HX  96
YANKTON        PTSUNNY   82  79  89 E7        29.93R
$$

ABBREVIATIONS USED IN REMARKS
   TC - TEMPERATURE IN CELSIUS
  WCI - WIND CHILL INDEX
   HX - HEAT INDEX
  VSB - VISIBILITY





USA.gov is the U.S. government's official web portal to all federal, state and local government web resources and services.